[[{"header":{"parameterUnit":"m.s-1","parameterCategory":1,"la1":30.2991,"la2":30.254,"lo1":-89.0895,"lo2":-89.0444,"dy":0.0017,"dx":0.0017,"nx":28,"ny":28,"refTime":"2025-06-18T03:00:00:Z","depth":0,"parameterNumber":2,"parameterNumberName":"U-component_of_WINDS"},"data":[0,0,0,0,0,0,0,0,0,0,0,0,0,0,0,0,0,0,0,0,0,0,0,0,0,0,0,0,0,0,0,0,0,0,0,0,0,0,0,0,0,0,0,0,0,0,0,0,0,0,0,0,0,0,0,0,0,0,1.5576,1.5577,0,1.571,1.5711,1.5713,1.5691,1.5689,1.5686,1.5684,1.5824,1.5829,1.5835,0,0,0,0,0,0,0,0,0,0,0,0,0,1.5302,1.5307,1.5576,1.5578,1.5579,1.5709,1.5711,1.5713,1.5691,1.5689,1.5686,1.5683,1.5822,1.5829,1.5836,0,0,0,0,0,0,0,0,0,0,0,0,0,1.5427,1.5309,1.5576,1.5584,1.5586,1.5709,1.5711,1.5714,1.5692,1.5689,1.5685,1.5682,1.5819,1.5828,1.5837,1.596,0,0,1.5863,1.5867,0,0,0,0,0,0,0,0,1.542,1.5437,1.5581,1.5584,1.5586,1.568,1.5666,1.5796,1.5693,1.5652,1.5684,1.568,1.5779,1.5791,1.5823,1.5967,1.5973,1.5864,1.587,1.5873,1.5876,0,0,0,0,0,0,0,1.5411,1.5431,1.5629,1.5583,1.5586,1.5581,1.5595,1.5691,1.5733,1.5655,1.5654,1.567,1.578,1.5815,1.5827,1.5975,1.5864,1.5872,1.5877,1.5881,1.6225,1.6229,0,0,0,0,0,0,1.54,1.5424,1.5625,1.5633,1.5493,1.5589,1.5605,1.5653,1.5732,1.5741,1.5673,1.5668,1.5802,1.5816,1.5831,1.5981,1.5873,1.5882,1.5887,1.6221,1.6226,1.623,0,0,0,0,0,0,1.5394,1.5418,1.5619,1.5528,1.5553,1.5597,1.5653,1.5658,1.5693,1.5745,1.5753,1.5701,1.58,1.5819,1.5928,1.5986,1.5886,1.5894,1.6217,1.6223,1.6228,1.6282,0,0,0,0,0,0,1.5387,1.5416,1.5464,1.5529,1.5558,1.5714,1.5656,1.5663,1.5708,1.5704,1.5774,1.5782,1.5798,1.5915,1.5937,1.5996,1.59,1.6212,1.6219,1.6226,1.6275,1.6289,1.6301,0,0,0,0,0,1.5377,1.5474,1.5466,1.5491,1.5619,1.5717,1.5734,1.5749,1.5713,1.5761,1.5794,1.578,1.5975,1.5926,1.5951,1.6014,1.6208,1.6217,1.6226,1.627,1.6286,1.63,0,0,0,0,0,0,1.5416,1.5483,1.5475,1.5597,1.5651,1.5713,1.5775,1.5767,1.5833,1.5826,1.5843,1.5859,1.597,1.6002,1.5946,1.6137,1.6087,1.6101,1.6112,1.6128,1.6141,1.6131,1.5908,0,0,0,0,0,1.5438,1.5512,1.5567,1.5669,1.5697,1.5731,1.5774,1.5781,1.5839,1.5862,1.5903,1.596,1.6034,1.6082,1.6153,1.6279,1.6294,1.6334,1.6347,1.6357,1.6369,1.6437,1.6456,1.6259,1.6259,1.6259,0,0,1.5486,1.5532,1.5578,1.5678,1.5721,1.5797,1.5751,1.5834,1.589,1.5875,1.598,1.6012,1.6076,1.6194,1.6248,1.6224,1.6426,1.6368,1.6375,1.6383,1.6448,1.6467,1.6484,1.6265,1.6264,1.6263,0,0,1.5612,1.5654,1.5743,1.5787,1.5852,1.5874,1.5895,1.5958,1.5978,1.6084,1.6073,1.6141,1.6268,1.6314,1.6354,1.6495,1.6485,1.6518,1.6585,1.6651,1.6667,1.6681,1.6731,1.6749,1.653,1.653,1.653,0,1.5664,1.5778,1.579,1.5874,1.5919,1.5906,1.5997,1.6039,1.6124,1.6155,1.6127,1.6285,1.6328,1.6456,1.649,1.6522,1.6547,1.6511,1.6663,1.6677,1.669,1.6739,1.6758,1.6533,1.6533,1.6533,1.6532,0,1.5838,1.5917,1.5981,1.6063,1.6114,1.6201,1.6227,1.6277,1.6279,1.6304,1.6411,1.646,1.6541,1.6571,1.6575,1.67,1.6683,1.6659,1.661,1.6713,1.6759,1.6777,1.6539,1.6537,1.6536,1.6535,0,0,1.5995,1.6081,1.6104,1.6141,1.6211,1.6272,1.6358,1.6436,1.6479,1.6537,1.661,1.6716,1.6693,1.6739,1.6747,1.6805,1.6913,1.6773,1.6775,1.6798,1.7054,1.7073,1.7094,1.6905,1.6909,1.6912,1.7049,0,1.6129,1.628,1.6293,1.6429,1.6502,1.649,1.6564,1.6615,1.664,1.6706,1.6732,1.6808,1.6772,1.68,1.6856,1.6888,1.6965,1.6878,1.6974,1.6977,1.696,1.7118,1.7139,1.7266,1.7067,1.707,1.7072,0,1.6305,1.6368,1.6511,1.657,1.6601,1.6668,1.6739,1.6802,1.6859,1.6873,1.6922,1.6921,1.7009,1.6955,1.7076,1.7016,1.7056,1.7077,1.7082,1.7094,1.7032,1.7135,1.7307,1.7327,1.71,1.7098,1.7096,0,1.6406,1.6526,1.6628,1.6659,1.673,1.6777,1.6808,1.6862,1.6907,1.6969,1.6999,1.7071,1.7111,1.7166,1.7185,1.7143,1.7305,1.7252,1.732,1.732,1.7357,1.7354,1.7539,1.7379,1.7379,1.7379,1.7378,0,1.6555,1.6644,1.6674,1.6736,1.6835,1.6848,1.6945,1.6973,1.7021,1.7088,1.7082,1.7145,1.7165,1.7232,1.7247,1.7345,1.7363,1.7377,1.738,1.7379,1.7377,1.7406,1.7399,1.7384,1.7383,1.7382,1.7381,0,1.6686,1.671,1.6819,1.6876,1.6892,1.6962,1.7011,1.7071,1.7093,1.7179,1.72,1.7235,1.7313,1.7337,1.7431,1.7441,1.7556,1.7551,1.7537,1.7538,1.7605,1.7599,1.7816,1.7845,1.7665,1.7667,1.7668,0,1.678,1.6848,1.6912,1.6956,1.6989,1.7061,1.7107,1.7122,1.717,1.7239,1.729,1.7367,1.743,1.7556,1.759,1.7662,1.7659,1.773,1.767,1.7666,1.7661,1.7658,1.7665,1.7742,1.7744,1.7745,1.7747,0,1.6945,1.6953,1.702,1.709,1.7144,1.7201,1.7255,1.7291,1.7314,1.7368,1.7447,1.7496,1.7591,1.7668,1.774,1.7773,1.7764,1.7765,1.7784,1.7785,1.7774,1.7782,1.757,1.776,1.7759,1.7758,1.7757,1.7757,1.7062,1.7121,1.7175,1.7249,1.729,1.734,1.7399,1.7428,1.7495,1.7573,1.7577,1.7664,1.7717,1.7813,1.7849,1.7917,1.7896,1.7925,1.7932,1.7939,1.7945,1.7762,1.793,1.793,1.7929,1.7929,1.7929,0,1.7227,1.7261,1.7328,1.7404,1.7461,1.7446,1.7504,1.7554,1.763,1.768,1.7741,1.7832,1.7906,1.7945,1.8018,1.8065,1.8063,1.8084,1.8081,1.8089,1.7959,1.7935,1.8084,1.8084,1.8084,1.8084,1.8084,1.8084,1.7321,1.742,1.7434,1.7554,1.7586,1.7671,1.7705,1.7751,1.7791,1.7893,1.7954,1.7978,1.8024,1.81,1.8167,1.8176,1.8204,1.8228,1.8236,1.8114,1.8098,1.8083,1.8061,1.8234,1.8234,1.836,1.8361,1.8362]},{"header":{"parameterUnit":"m.s-1","parameterCategory":1,"la1":30.2991,"la2":30.254,"lo1":-89.0895,"lo2":-89.0444,"dy":0.0017,"dx":0.0017,"nx":28,"ny":28,"refTime":"2025-06-18T03:00:00:Z","depth":0,"parameterNumber":3,"parameterNumberName":"V-component_of_WINDS"},"data":[0,0,0,0,0,0,0,0,0,0,0,0,0,0,0,0,0,0,0,0,0,0,0,0,0,0,0,0,0,0,0,0,0,0,0,0,0,0,0,0,0,0,0,0,0,0,0,0,0,0,0,0,0,0,0,0,0,0,4.9624,4.9625,0,4.9746,4.9747,4.9748,4.9744,4.9743,4.9741,4.974,4.9853,4.9857,4.9862,0,0,0,0,0,0,0,0,0,0,0,0,0,4.9377,4.9381,4.9624,4.9626,4.9627,4.9746,4.9747,4.9749,4.9745,4.9743,4.9741,4.9739,4.9851,4.9857,4.9862,0,0,0,0,0,0,0,0,0,0,0,0,0,4.9489,4.9383,4.9624,4.964,4.9642,4.9745,4.9747,4.9749,4.9745,4.9743,4.974,4.9738,4.9849,4.9856,4.9863,4.9954,0,0,4.9884,4.9887,0,0,0,0,0,0,0,0,4.9483,4.9498,4.9636,4.9639,4.9642,4.9728,4.9701,4.9818,4.9746,4.9706,4.9739,4.9737,4.9812,4.9822,4.985,4.996,4.9965,4.9884,4.9888,4.9891,4.9893,0,0,0,0,0,0,0,4.9475,4.9493,4.9672,4.9638,4.9641,4.9637,4.965,4.9723,4.9771,4.9709,4.9709,4.9724,4.9813,4.9843,4.9853,4.9966,4.9884,4.989,4.9894,4.9897,5.0156,5.0159,0,0,0,0,0,0,4.9466,4.9487,4.9668,4.9675,4.9555,4.9643,4.9658,4.9702,4.977,4.9779,4.9726,4.9723,4.9833,4.9845,4.9856,4.9968,4.9891,4.9898,4.9902,5.0153,5.0157,5.016,0,0,0,0,0,0,4.946,4.9482,4.9663,4.9581,4.9604,4.965,4.97,4.9706,4.9736,4.9783,4.9791,4.9749,4.9831,4.9847,4.9931,4.9972,4.9901,4.9907,5.015,5.0154,5.0158,5.0192,0,0,0,0,0,0,4.9453,4.948,4.9518,4.9582,4.9609,4.9739,4.9702,4.971,4.9749,4.9747,4.9807,4.9814,4.9831,4.9921,4.9938,4.998,4.9912,5.0146,5.0152,5.0157,5.0187,5.0196,5.0204,0,0,0,0,0,4.9445,4.952,4.952,4.9542,4.9658,4.9741,4.9756,4.9777,4.9753,4.9789,4.982,4.9812,4.9965,4.9929,4.9948,4.9993,5.0144,5.015,5.0156,5.0183,5.0195,5.0204,0,0,0,0,0,0,4.9455,4.9529,4.9529,4.9629,4.968,4.974,4.9787,4.9788,4.9843,4.9838,4.9859,4.9872,4.9956,4.9983,4.9942,5.0085,5.0051,5.0061,5.0064,5.0076,5.0084,5.0075,4.9918,0,0,0,0,0,4.947,4.9536,4.9595,4.9676,4.9702,4.9741,4.9778,4.979,4.9841,4.9861,4.9898,4.9944,5.0003,5.0041,5.0097,5.0191,5.0203,5.0231,5.024,5.0247,5.0255,5.0305,5.0318,5.018,5.018,5.018,0,0,4.9499,4.9548,4.9587,4.968,4.972,4.9784,4.9758,4.9827,4.9874,4.987,4.9953,4.9981,5.0034,5.0124,5.0165,5.0149,5.0296,5.0255,5.026,5.0264,5.0313,5.0326,5.0338,5.0184,5.0184,5.0183,0,0,4.9586,4.963,4.9703,4.9745,4.9809,4.9834,4.9851,4.9913,4.9933,5.0017,5.0015,5.0069,5.017,5.0208,5.024,5.0342,5.0336,5.0359,5.0404,5.0453,5.0464,5.0474,5.0509,5.0521,5.0368,5.0368,5.0368,0,4.9613,4.9714,4.9739,4.981,4.985,4.9854,4.9926,4.9964,5.004,5.0066,5.0048,5.0175,5.0211,5.0309,5.0334,5.0361,5.0379,5.0352,5.0461,5.0471,5.048,5.0514,5.0527,5.037,5.037,5.037,5.0369,0,4.9744,4.9813,4.9864,4.9943,4.9988,5.0059,5.0092,5.0134,5.0142,5.0168,5.0252,5.0296,5.0361,5.0385,5.0392,5.0484,5.0472,5.0458,5.0423,5.0496,5.0528,5.0541,5.0374,5.0373,5.0372,5.0371,0,0,4.9839,4.9933,4.9951,4.9987,5.0057,5.0109,5.0179,5.0247,5.0282,5.0334,5.0391,5.0477,5.0464,5.0501,5.0512,5.0555,5.0632,5.0535,5.0536,5.0551,5.0733,5.0743,5.0758,5.0629,5.0631,5.0633,5.0728,0,4.9933,5.0062,5.0087,5.0197,5.026,5.0265,5.0325,5.0372,5.0398,5.0453,5.0479,5.054,5.0519,5.0542,5.0585,5.0613,5.0668,5.0607,5.0679,5.0681,5.0665,5.0775,5.0786,5.0873,5.0741,5.0743,5.0745,0,5.0059,5.0119,5.0237,5.0299,5.0326,5.0381,5.0445,5.0498,5.055,5.0566,5.0608,5.0615,5.0683,5.0647,5.0741,5.0699,5.0729,5.0748,5.0751,5.0758,5.0717,5.0783,5.0902,5.0915,5.0765,5.0763,5.0762,0,5.0116,5.0226,5.031,5.0341,5.0416,5.0453,5.0485,5.0537,5.0576,5.063,5.0655,5.0715,5.0748,5.0793,5.0814,5.0786,5.0906,5.0871,5.0918,5.0917,5.0942,5.094,5.1066,5.0963,5.0963,5.0963,5.0963,0,5.0217,5.0288,5.0337,5.0389,5.0468,5.0495,5.0571,5.0602,5.0647,5.0702,5.0709,5.0759,5.0786,5.0839,5.0856,5.093,5.0944,5.0956,5.096,5.0956,5.0954,5.0975,5.0969,5.0967,5.0966,5.0965,5.0964,0,5.0293,5.033,5.0422,5.0487,5.0504,5.056,5.0613,5.0661,5.0688,5.0758,5.0775,5.0815,5.0879,5.0905,5.0982,5.0993,5.1077,5.1077,5.1061,5.1062,5.1107,5.1102,5.125,5.127,5.1155,5.1156,5.1157,0,5.0355,5.0411,5.0482,5.0522,5.0557,5.062,5.0661,5.0689,5.073,5.0795,5.0835,5.09,5.0953,5.1053,5.1087,5.1145,5.1145,5.1193,5.1153,5.1147,5.1144,5.114,5.1145,5.1199,5.1201,5.1202,5.1202,0,5.046,5.0476,5.0537,5.0605,5.0655,5.0709,5.0761,5.0791,5.0826,5.0872,5.094,5.0981,5.1062,5.1124,5.1185,5.1214,5.1213,5.1215,5.1229,5.1224,5.1213,5.1218,5.108,5.1211,5.121,5.1209,5.1209,5.1209,5.053,5.058,5.0639,5.0707,5.075,5.0799,5.0848,5.0882,5.094,5.1011,5.1022,5.1093,5.1143,5.1225,5.1257,5.131,5.1297,5.1317,5.1322,5.1326,5.1329,5.1206,5.1321,5.1321,5.1321,5.132,5.132,0,5.0635,5.0674,5.0736,5.0811,5.0864,5.0864,5.0921,5.0964,5.1028,5.1077,5.113,5.1207,5.1268,5.1307,5.1368,5.1403,5.1404,5.1418,5.1415,5.1421,5.1337,5.1319,5.1416,5.1416,5.1416,5.1416,5.1416,5.1416,5.0695,5.078,5.0802,5.0907,5.0944,5.1017,5.105,5.1094,5.1133,5.122,5.1273,5.1299,5.1343,5.1408,5.1463,5.1472,5.1494,5.1508,5.1516,5.1437,5.1427,5.1417,5.1401,5.1513,5.1513,5.1596,5.1597,5.1597]}]]